Weather in Bonn

Germany     50°44′11″N   7°05′25″E
temp.,
°C
wind,
m/s
gust,
m/s
humid.,
%
clouds,
%
prec.,
mm/h
press.,
hPa
HPBL,
m
6 march, sat
sat601:00+1ese13670 0.0 1034155
04:00+1e11680 0.0 103471
07:000e01690 0.0 103430
10:00+4ene12520 0.0 1034438
13:00+7ene233217 0.0 10331147
16:00+8n122814 0.0 10311366
19:00+5nw244737 0.0 1031355
22:00+2e136064 0.0 1031139
7 march, sun
sun701:00+1sse116147 0.0 103065
04:00+1ssw01635 0.0 102842
07:000s11657 0.0 102840
10:00+4nne11491 0.0 1026316
13:00+7nnw22370 0.0 1025850
16:00+7nnw33430 0.0 10221057
19:00+4nw24550 0.0 1023446
22:00+2nw13650 0.0 1024161
8 march, mon
mon801:00+1s01743 0.0 102489
04:00+1sw11783 0.0 102358
07:000wsw118124 0.0 102452
10:00+4nw116573 0.0 1024411
13:00+6n115487 0.0 1023823
16:00+6nnw1152100 0.0 1021909
19:00+4w1167100 0.0 1021508
22:00+3sw1293100 0.2 1021185
9 march, tue
tue901:00+3sw2295100 1.3 1021153
04:00+3wsw2394100 0.4 1020189
07:00+4w2594100 0.9 1020309
10:00+5w3677100 0.1 1020564
13:00+8wnw346597 0.2 1021922
16:00+9w356190 0.3 10191181
19:00+7sw247189 0.4 1020185
22:00+6wsw367598 0.1 1021400
10 march, wed
wed1001:00+4ssw367885 0.1 1020269
04:00+3ssw367838 0.0 1020246
07:00+3s377953 0.0 1019350
10:00+7ssw51064100 0.0 1018833
13:00+9ssw61154100 0.0 10161184
16:00+8ssw61463100 0.2 1014990
19:00+7ssw51476100 1.4 1012910
22:00+8ssw51481100 1.4 1011859